Location: Chilton Park
(37.7711°N, 100.0276°W)
Time: 09:38:34
(UTC+00:00)

Cosmos 2227 Rocket - Pass Details

Date: 10 July 2022
Orbit: 840 x 844 km, 71.0° (Epoch: 14 August)

Event Time Altitude Azimuth Distance (km) Brightness Sun altitude
Exits shadow 08:42:36 36° 272° (W) 1,318 2.9 -24.0°
Maximum altitude 08:43:42 39° 298° (WNW) 1,240 3.0 -23.9°
Drops below altitude 10° 08:49:00 10° 7° (N) 2,470 5.5 -23.4°
Sets 08:51:37 0° 15° (NNE) 3,408 6.6 -23.1°
